{"data":{"norad_id":63640,"epoch":"2026-05-25T03:13:15.292128Z","epoch_age_seconds":63604,"freshness":"FRESH","line1":"1 63640U 25083G   26145.13420477  .00010374  00000+0  38583-3 0  9997","line2":"2 63640  42.9993 293.8783 0001198 268.1518  91.9196 15.27591646 61757","mean_motion":15.27591646,"eccentricity":0.0001198,"inclination_deg":42.9993,"raan_deg":293.8783,"arg_perigee_deg":268.1518,"mean_anomaly_deg":91.9196,"bstar":0.00038583,"rev_number":6175,"period_min":94.266030046095,"perigee_km":482.19225803095,"apogee_km":483.8361898642,"semimajor_km":6861.1512239476,"source":"CELESTRAK","updated_at":"2026-05-25T13:38:20.053008Z"}}